Location: Cluj-Napoca
(46.7712°N, 23.6236°E)
Time: 12:27:20
(UTC+03:00)

ISS - Pass Details

Date: 14 May 2021
Orbit: 417 x 422 km, 51.6° (Epoch: 15 May)

Event Time Altitude Azimuth Distance (km) Brightness Sun altitude
Rises 23:50:33 0° 252° (WSW) 2,357 0.1 -21.2°
Reaches altitude 10° 23:52:39 10° 255° (WSW) 1,496 -0.9 -21.4°
Enters shadow 23:55:34 57° 294° (WNW) 499 -3.3 -21.6°
Exits shadow 23:57:50 24° 55° (NE) 911 -2.0 -21.7°
Drops below altitude 10° 23:59:21 10° 61° (ENE) 1,504 -0.9 -21.8°
Sets 00:01:28 0° 65° (ENE) 2,371 0.1 -21.9°
